Weather History for Yeovilton, United Kingdom

Change the Weather History Date:

Friday, January 31, 2014

  Actual Average Record
Temperature  
Mean Temperature 42 °F -  
Max Temperature 51 °F 46 °F 53 °F (2000)
Min Temperature 33 °F 34 °F 17 °F (2011)
Degree Days  
Heating Degree Days 23    
Moisture  
Dew Point 41 °F    
Average Humidity 88    
Maximum Humidity 100    
Minimum Humidity 72    
Precipitation  
Precipitation 0.31 in - - ()
Sea Level Pressure  
Sea Level Pressure 29.39 in    
Wind  
Wind Speed 9 mph ()    
Max Wind Speed 24 mph    
Max Gust Speed 37 mph    
Visibility 5.1 miles    
Events Rain    
Averages and records for this station are not official NWS values.
T = Trace of Precipitation, MM = Missing Value Source: Averaged Metar Reports

Daily Weather History Graph

Daily Weather History Graph

Search for Another Location

Airport:

Trip Planner

Search our weather history database for the weather conditions in past years. The results will help you decide how hot, cold, wet, or windy it might be!

Date:

Astronomy

Jan. 31, 2014 Rise Set
Actual Time 7:48 AM GMT 4:59 PM GMT
Civil Twilight 7:13 AM GMT 5:35 PM GMT
Nautical Twilight 6:33 AM GMT 6:15 PM GMT
Astronomical Twilight 5:54 AM GMT 6:54 PM GMT
Moon 7:38 AM GMT (1/31) 6:19 PM GMT (1/31)
Length of Visible Light 10h 22m
Length of Day
9h 10m
New Moon, 1% of the Moon is Illuminated
Jan 31
New Moon
Feb 6
First Quarter
Feb 14
Full
Feb 22
Last Quarter
Mar 1
New

Hourly Weather History & Observations

Time (GMT) Temp. Windchill Dew Point Humidity Pressure Visibility Wind Dir Wind Speed Gust Speed Precip Events Conditions
12:00 AM 38 °F - 35 °F 85% 29.69 in 4 mi North 2.3 mph - -   Light Haze
12:50 AM 37.4 °F - 35.6 °F 93% 29.68 in 3.7 mi WNW 1.2 mph - N/A   Haze
1:00 AM 38 °F - 35 °F 84% 29.69 in 4 mi WNW 1.2 mph - -   Light Haze
1:50 AM 37.4 °F - 35.6 °F 93% 29.68 in 6.2 mi South 2.3 mph - N/A   Overcast
2:00 AM 38 °F - 35 °F 85% 29.68 in 6 mi South 2.3 mph - -   Overcast
2:50 AM 37.4 °F 33.8 °F 33.8 °F 87% 29.65 in 4.3 mi SE 4.6 mph - N/A   Haze
3:00 AM 38 °F - 34 °F 81% 29.68 in 4 mi SE 4.6 mph - -   Haze
3:50 AM 37.4 °F 34.9 °F 33.8 °F 87% 29.65 in 3.7 mi SSE 3.5 mph - N/A   Haze
4:00 AM 37 °F - 34 °F 84% 29.66 in 4 mi SSE 3.5 mph - -   Haze
4:50 AM 33.8 °F 30.8 °F 33.8 °F 100% 29.62 in 3.1 mi ESE 3.5 mph - N/A   Haze
5:00 AM 34 °F - 33 °F 94% 29.65 in 3 mi ESE 3.5 mph - -   Haze
5:50 AM 33.8 °F 30.8 °F 32.0 °F 93% 29.62 in 2.5 mi East 3.5 mph - N/A   Haze
6:00 AM 34 °F - 32 °F 91% 29.63 in 2 mi East 3.5 mph - -   Haze
6:50 AM 35.6 °F 30.7 °F 33.8 °F 93% 29.59 in 2.8 mi SE 5.8 mph - N/A   Haze
7:00 AM 36 °F - 34 °F 90% 29.60 in 3 mi SE 5.8 mph - -   Haze
7:50 AM 37.4 °F 30.3 °F 35.6 °F 93% 29.56 in 2.8 mi SE 10.4 mph - N/A   Haze
8:00 AM 38 °F - 36 °F 90% 29.57 in 3 mi SE 10.4 mph - -   Haze
8:50 AM 39.2 °F 33.6 °F 37.4 °F 93% 29.53 in 2.8 mi ESE 8.1 mph - N/A   Haze
9:00 AM 39 °F - 38 °F 93% 29.55 in 3 mi ESE 8.1 mph - -   Haze
9:18 AM 41.0 °F 35.8 °F 37.4 °F 87% 29.50 in 3.7 mi SE 8.1 mph - N/A   Haze
9:50 AM 44.6 °F 38.4 °F 39.2 °F 81% 29.47 in 5.6 mi SSE 12.7 mph - N/A   Haze
10:00 AM 44 °F - 39 °F 76% 29.50 in 6 mi SSE 12.7 mph - -   Haze
10:50 AM 46.4 °F 39.0 °F 39.2 °F 76% 29.42 in 6.2 mi SSE 19.6 mph - N/A Rain Light Rain
11:00 AM 46 °F - 40 °F 72% 29.44 in 7 mi SSE 19.6 mph - - Rain Light Rain
11:50 AM 46.4 °F 39.0 °F 42.8 °F 87% 29.42 in 3.7 mi South 19.6 mph - N/A Rain Light Rain
12:00 PM 46 °F - 42 °F 81% 29.42 in 4 mi South 19.6 mph - - Rain Light Rain
12:50 PM 44.6 °F 35.9 °F 42.8 °F 93% 29.36 in 3.7 mi South 23.0 mph - N/A Rain Rain
1:00 PM 45 °F - 42 °F 85% 29.37 in 4 mi South 23.0 mph - - Rain Rain
1:14 PM 46.4 °F 38.3 °F 41.0 °F 81% 29.36 in 3.7 mi South 23.0 mph 36.8 mph N/A Rain Rain
1:50 PM 46.4 °F 38.1 °F 42.8 °F 87% 29.33 in 3.7 mi South 24.2 mph - N/A Rain Rain
2:00 PM 46 °F - 43 °F 84% 29.33 in 4 mi South 24.2 mph - - Rain Rain
2:50 PM 46.4 °F 38.5 °F 44.6 °F 93% 29.27 in 3.7 mi South 21.9 mph - N/A Rain Rain
3:00 PM 46 °F - 44 °F 89% 29.28 in 4 mi South 21.9 mph - - Rain Rain
3:50 PM 46.4 °F 39.2 °F 44.6 °F 93% 29.21 in 6.2 mi South 18.4 mph - N/A Rain Light Rain
4:00 PM 47 °F - 44 °F 86% 29.24 in 9 mi South 18.4 mph - - Rain Light Rain
4:50 PM 46.4 °F 38.3 °F 44.6 °F 93% 29.18 in 5.0 mi South 23.0 mph - N/A Rain Light Rain
5:00 PM 47 °F - 45 °F 91% 29.19 in 5 mi South 23.0 mph - - Rain Light Rain
5:50 PM 50.0 °F - 48.2 °F 94% 29.12 in 3.1 mi South 23.0 mph - N/A Rain Light Rain
6:00 PM 50 °F - 48 °F 90% 29.15 in 3 mi South 23.0 mph - - Rain Light Rain
6:50 PM 51.8 °F - 50.0 °F 94% 29.09 in 6.2 mi SSW 18.4 mph - N/A   Mostly Cloudy
7:00 PM 51 °F - 50 °F 94% 29.11 in 6 mi SSW 18.4 mph - - Rain Rain
7:50 PM 51.8 °F - 50.0 °F 94% 29.09 in 6.2 mi SSW 15.0 mph - N/A   Mostly Cloudy
8:00 PM 51 °F - 50 °F 93% 29.10 in 16 mi SSW 15.0 mph - - Rain Rain
8:50 PM 50.0 °F - 46.4 °F 87% 29.06 in 6.2 mi South 18.4 mph - N/A   Mostly Cloudy
9:00 PM 50 °F - 46 °F 83% 29.09 in 18 mi South 18.4 mph - -   Partly Cloudy
9:50 PM 50.0 °F - 46.4 °F 87% 29.06 in 6.2 mi SSW 12.7 mph - N/A   Mostly Cloudy
10:00 PM 49 °F - 46 °F 83% 29.08 in 13 mi SSW 12.7 mph - -   Partly Cloudy
10:50 PM 48.2 °F - 46.4 °F 93% 29.03 in 4.3 mi SSW 12.7 mph - N/A Rain Rain Showers
11:00 PM 49 °F - 46 °F 84% 29.06 in 4 mi SSW 12.7 mph - - Rain Rain Showers
11:50 PM 46.4 °F 39.5 °F 42.8 °F 87% 29.03 in 5.0 mi West 17.3 mph - N/A Rain Heavy Rain